User: anonymous   Login
Location: Caltech
(34.1382°N, 118.1253°W)
Time: 01:34:23
(UTC-07:00)
Language:

Gbstr 26 Del rocket - Orbit

View from above orbital plane
View from above orbital plane
View from above satellite
View from above satellite

Ground track
Ground track

The orbit data is extracted from the following two-line orbital elements,

1 25876U 99041E   16125.22404321  .00000315  00000-0  93697-4 0  9991
2 25876  51.7665 130.0307 0532722 276.3872  77.6677 14.03794542857166
Epoch (UTC): 04 May 2016 05:22:37
Eccentricity: 0.0532722
inclination: 51.7665°
perigee height: 494 km
apogee height: 1267 km
right ascension of ascending node: 130.0307°
argument of perigee: 276.3872°
revolutions per day: 14.03794542
mean anomaly at epoch: 77.6677°
orbit number at epoch: 85716

The dashed part of the orbit path shows where the satellite is in the earth's shadow,  

DLR